GFSMW_con_3kmhel_156.txt.gz
Helicity
139 141 211 370 292 293 336 305 283 338 354 338 282 265 233 219 225 212 173 175 174 179 166 118 117 131 126 114 118 106 97 96 99 102 82 65 105 102 163 140 144 145 70
1 190 316 523 518 375 325 286 267 294 284 279 254 230 241 213 217 202 195 188 182 179 176 150 148 130 111 120 129 137 119 86 110 104 82 110 108 86 110 100 104 97 98
70 27 370 505 552 491 408 334 269 235 216 228 259 332 369 358 281 230 207 209 209 211 196 190 159 165 135 130 136 150 158 113 87 132 126 141 194 113 123 208 220 207 138
110 42 179 454 481 534 554 417 285 262 224 248 294 343 334 273 203 193 263 241 239 239 220 196 188 190 175 149 137 159 161 178 137 114 144 156 163 198 193 258 233 149 143
286 74 41 328 458 510 491 386 307 280 239 273 370 327 247 205 232 301 281 252 255 234 224 207 191 184 177 187 191 204 207 207 169 174 167 182 171 170 171 156 182 149 205
264 260 202 35 381 406 326 306 253 291 292 266 336 265 181 258 356 340 264 270 272 274 252 231 210 193 201 187 176 186 228 217 238 176 211 198 173 128 128 117 122 112 196
165 153 226 90 210 273 219 204 200 241 319 335 265 217 157 305 270 246 249 259 284 279 271 236 217 217 219 213 182 185 200 215 200 200 149 156 168 155 132 119 123 110 121
69 120 99 162 77 123 156 222 261 239 259 304 306 238 214 323 274 228 240 288 290 285 297 297 247 198 196 204 195 197 174 166 152 184 155 120 131 136 130 123 105 113 125
146 70 -39 12 83 103 185 265 290 263 189 226 316 221 292 362 282 255 346 364 421 339 296 298 257 220 201 198 200 176 155 156 156 147 141 104 81 90 113 128 136 140 175
35 90 141 77 1 58 154 287 323 283 195 244 360 320 333 328 356 446 473 476 408 347 325 288 257 222 199 167 150 177 188 175 167 145 158 136 90 68 86 75 87 96 137
93 123 96 151 95 60 122 217 312 322 259 326 438 417 397 356 430 489 460 439 406 356 320 289 246 236 214 210 179 180 201 177 165 130 119 88 83 98 86 57 63 70 80
64 76 121 106 193 156 154 240 251 280 287 293 390 378 401 420 471 477 461 461 413 359 345 314 287 262 218 166 154 184 170 169 167 139 119 115 84 83 85 89 79 91 78
73 61 53 109 107 107 136 224 239 206 109 202 281 306 358 414 426 436 500 470 473 440 371 364 328 297 254 207 250 197 222 212 191 177 158 160 165 153 104 114 120 118 132
66 41 73 152 184 101 109 180 301 293 190 225 335 295 278 360 466 462 464 500 478 418 350 320 316 294 192 195 262 193 194 188 203 201 184 159 174 147 170 153 156 136 184
79 85 137 140 73 42 98 116 216 302 341 341 332 322 446 465 450 445 394 442 415 403 405 356 355 228 279 299 203 160 162 158 156 132 139 135 143 208 210 132 166 236 205
145 230 226 147 91 18 34 78 156 259 358 366 419 541 574 599 501 412 389 460 670 528 391 348 248 282 275 221 228 155 118 120 125 101 101 78 133 159 184 209 253 243 235
281 248 135 117 126 62 19 -17 88 238 339 484 615 693 688 670 550 546 600 657 587 466 318 269 354 352 234 212 264 197 203 213 177 102 81 100 126 98 85 171 194 219 227
210 102 69 62 65 132 98 61 82 203 434 537 670 741 746 621 570 536 485 401 425 335 340 352 299 253 201 241 305 273 258 245 223 215 204 179 157 145 118 121 126 144 153
86 60 63 64 53 113 166 188 233 320 535 678 729 825 857 670 384 317 345 448 430 335 312 267 229 175 196 226 245 209 220 247 235 213 164 151 145 156 140 118 114 111 84
52 63 48 39 38 91 165 255 315 342 523 632 721 804 484 394 369 321 339 373 384 350 326 235 157 112 203 231 141 119 139 164 155 175 177 164 130 127 112 85 90 110 88
43 39 51 36 38 91 160 221 261 307 390 587 591 473 416 318 307 363 345 289 260 242 182 154 108 120 177 200 206 124 96 90 99 128 157 163 151 151 139 145 109 88 58
32 33 59 35 40 83 115 153 194 282 394 479 467 436 384 333 296 282 233 192 162 142 142 130 128 140 164 164 179 186 132 115 170 165 153 138 134 144 140 128 117 100 86
11 41 59 45 50 70 87 140 205 285 371 444 451 417 301 264 249 218 177 165 159 129 109 111 124 127 143 173 178 196 246 237 184 165 140 148 144 147 138 136 135 126 94
33 49 64 67 64 91 99 139 188 253 356 403 432 349 312 259 177 155 149 126 92 90 91 102 117 126 133 157 193 231 233 236 234 181 156 146 138 101 73 104 116 107 102
-10 36 80 68 80 80 86 116 167 237 273 290 267 267 267 246 197 136 100 68 56 62 79 91 107 114 116 109 138 163 169 157 155 170 148 119 97 96 107 107 109 89 66
24 73 124 74 62 68 74 106 169 190 211 212 228 234 215 156 145 114 133 136 147 136 79 107 122 100 116 95 105 122 128 158 147 137 121 109 91 96 92 89 81 73 94

GFSMW_con_3kmhel_162.txt.gz
Helicity
140 251 383 482 538 603 639 549 561 482 494 453 483 436 318 248 221 195 180 186 195 179 164 175 185 187 169 149 148 170 150 154 118 164 292 308 307 283 268 230 236 208 191
80 222 440 506 564 651 636 586 521 477 411 367 341 326 345 294 282 255 239 199 206 206 173 179 176 169 169 156 148 164 161 151 136 176 301 287 290 340 285 261 249 251 209
115 154 369 519 637 678 665 622 557 436 379 312 313 290 337 349 333 299 224 199 218 238 211 188 175 167 161 162 152 158 151 162 206 221 225 279 250 327 297 308 279 254 224
193 124 349 530 649 747 650 576 511 389 251 239 229 238 268 334 297 229 213 214 228 257 246 213 194 195 189 191 175 172 155 184 216 289 253 257 255 291 286 315 309 271 237
211 238 358 473 588 678 592 497 333 245 168 152 187 204 254 298 269 281 259 222 203 227 233 234 226 220 224 219 216 218 225 212 185 193 245 297 365 315 320 318 310 330 267
189 178 172 259 296 306 278 243 190 90 124 167 160 189 248 309 287 266 243 213 183 198 229 212 223 218 242 258 247 240 243 246 244 230 219 226 277 296 300 338 322 267 233
154 133 131 43 53 98 119 110 110 101 114 141 140 193 262 323 270 266 272 258 211 184 207 242 236 226 213 226 242 269 262 247 254 245 254 254 237 253 306 349 357 294 224
76 53 65 16 46 51 64 89 83 91 121 123 132 162 220 263 273 276 295 282 242 205 204 225 234 226 222 236 251 269 266 256 254 255 250 247 246 241 224 243 295 336 303
75 65 -0 -35 -91 -29 -0 19 64 112 106 127 150 141 186 240 250 251 285 296 277 247 222 219 210 213 229 232 241 260 279 278 265 252 231 223 208 215 243 232 217 251 263
72 39 38 41 48 29 -17 42 45 90 124 111 130 150 163 207 233 279 291 296 294 313 282 239 219 228 226 227 256 283 267 259 235 213 203 201 175 160 169 198 216 234 228
-8 2 34 89 78 64 13 -48 -4 65 120 134 151 155 157 174 246 303 348 364 380 351 335 276 228 225 252 264 246 241 238 237 212 190 167 141 116 124 119 194 206 206 196
7 8 111 158 179 136 84 39 15 61 85 123 153 170 213 252 295 347 408 439 448 417 367 340 258 244 246 261 253 238 244 230 222 192 194 202 171 181 158 172 187 166 153
36 109 231 272 210 176 131 78 60 74 88 117 141 200 255 299 327 360 370 425 514 503 449 404 341 289 294 294 322 337 341 357 317 366 275 218 257 262 151 215 188 158 132
60 150 293 263 272 197 150 97 43 51 49 73 117 172 225 272 313 360 422 486 540 530 471 438 412 375 349 290 349 366 404 454 394 341 295 252 229 234 158 186 169 146 162
114 167 258 258 174 140 95 68 70 68 44 68 108 146 260 356 405 459 510 590 635 652 650 658 564 466 441 368 354 360 423 332 366 204 258 239 202 159 171 162 166 160 171
185 178 177 151 120 89 73 96 125 103 104 79 88 192 314 445 479 610 606 660 712 788 676 624 504 407 408 279 249 276 225 207 187 277 271 324 184 221 218 212 203 160 139
277 298 269 217 172 144 102 128 144 128 111 95 132 240 363 469 538 692 641 687 812 728 511 521 485 466 416 338 250 247 213 242 236 233 248 137 143 178 194 218 223 223 192
230 220 203 193 178 138 168 145 155 118 89 125 173 252 325 445 528 611 554 756 670 539 480 408 435 372 325 278 204 235 277 233 251 241 110 105 104 117 125 157 190 194 189
175 148 117 107 133 154 144 137 93 52 54 91 166 237 321 431 544 611 580 595 526 387 356 378 355 318 261 229 253 278 301 331 359 127 82 77 100 89 102 143 176 168 147
144 152 178 189 130 153 123 96 65 49 61 114 170 221 286 368 458 531 423 329 353 387 359 299 240 232 249 218 213 262 282 297 194 112 104 74 91 79 100 145 137 160 122
103 129 134 165 64 94 100 68 59 69 101 154 188 212 254 318 338 340 357 369 362 303 263 227 239 260 226 197 171 214 296 207 153 119 122 119 94 89 98 106 115 90 69
80 93 105 105 45 45 43 39 56 93 135 160 184 192 244 268 266 306 317 322 292 269 232 230 263 252 226 137 172 170 96 81 123 111 125 114 82 102 116 98 89 89 84
66 94 87 66 49 39 53 62 78 113 146 174 196 204 228 235 246 237 261 277 246 240 209 188 188 169 148 114 58 58 39 57 120 114 115 116 104 106 104 82 105 101 81
95 88 93 68 45 58 72 96 123 143 178 190 197 213 209 210 226 214 186 213 206 208 179 148 131 115 109 178 167 79 112 97 97 101 156 179 174 161 160 154 120 87 67
153 131 68 57 52 88 112 123 139 185 201 198 204 221 194 200 206 189 170 153 148 152 155 128 106 88 138 116 120 166 140 124 116 182 181 171 163 152 148 146 148 125 107
148 200 101 81 71 84 108 119 146 163 188 193 178 212 202 221 197 160 131 90 107 66 76 77 98 56 67 83 94 100 108 109 138 156 132 111 108 109 118 125 128 115 108

GFSMW_con_3kmhel_165.txt.gz
Helicity
55 49 194 340 416 359 344 414 480 449 408 366 351 326 276 221 219 214 203 202 197 192 195 187 173 164 147 129 151 154 150 150 163 261 359 385 376 378 329 320 274 239 198
70 75 212 362 442 441 412 440 515 482 401 358 269 199 197 160 159 182 207 206 196 187 178 168 169 169 166 149 142 149 163 163 178 230 334 302 273 334 315 299 262 258 224
112 99 139 350 488 501 488 519 547 508 322 190 168 158 203 181 209 219 186 166 163 159 157 163 154 155 160 129 125 131 142 167 191 216 252 287 235 334 289 317 293 270 246
105 155 270 420 524 534 537 579 569 427 259 176 155 149 166 161 149 139 124 132 120 121 123 138 152 154 141 131 126 121 150 171 187 259 285 272 248 294 287 341 352 320 268
111 107 151 310 445 545 533 470 377 239 135 90 117 155 172 168 140 155 138 114 107 105 117 119 134 152 155 146 135 124 114 147 172 242 304 306 306 322 307 318 363 394 319
95 75 68 123 189 185 170 185 133 67 106 90 90 118 145 152 161 159 152 143 132 123 144 159 159 154 155 136 133 142 149 138 166 192 229 242 276 300 290 304 361 319 280
90 78 89 52 -11 40 59 62 77 95 78 65 56 71 107 150 163 170 173 156 148 154 145 165 165 149 144 154 155 153 162 174 183 189 198 212 225 243 273 292 381 337 287
70 36 12 25 36 42 46 45 47 22 54 64 67 97 129 155 169 169 187 164 159 138 144 162 158 147 138 149 174 189 187 185 188 202 216 230 246 238 259 273 349 338 311
59 24 -5 7 13 -52 -85 -46 -23 5 68 127 123 118 160 199 192 169 181 178 197 174 159 189 196 185 161 152 165 206 215 217 210 207 212 229 241 246 258 258 287 253 280
64 26 57 76 42 -33 -35 -25 4 33 48 81 125 140 157 156 148 174 165 189 225 238 251 214 218 222 200 175 173 190 192 207 209 196 197 200 202 211 219 224 239 223 207
54 97 79 10 -10 6 0 15 28 24 37 69 62 81 110 150 189 201 213 209 238 269 300 285 258 214 209 188 191 183 186 215 220 208 204 197 192 182 183 175 192 185 157
139 102 63 78 85 129 161 93 49 29 31 59 62 57 59 107 145 186 210 244 218 247 277 328 310 252 230 211 206 220 225 237 254 234 227 216 205 235 190 155 127 172 278
76 66 123 150 210 245 228 153 104 58 66 69 55 55 63 83 93 127 189 246 294 327 368 375 375 327 281 270 273 303 303 300 312 324 312 287 293 296 224 232 183 254 226
88 71 170 219 254 241 206 160 99 94 78 91 119 105 90 85 98 131 196 276 340 416 457 438 444 401 394 397 350 323 346 304 298 327 326 217 245 200 233 297 255 211 159
86 119 186 225 200 189 196 174 143 125 113 103 117 88 87 91 136 175 238 319 417 481 467 535 570 524 481 457 375 333 326 343 298 293 201 198 182 242 223 181 190 174 158
135 145 174 225 214 176 185 163 143 141 149 145 142 113 83 102 154 215 295 395 495 569 564 554 584 664 434 329 278 314 337 314 277 203 185 261 324 261 283 187 144 143 138
193 226 229 228 214 179 166 154 151 155 178 179 165 120 103 135 198 257 321 387 472 478 515 644 702 408 340 309 308 304 312 290 196 137 173 217 231 277 234 187 206 202 175
171 224 218 195 189 178 182 176 161 183 177 152 113 92 95 142 205 281 324 374 405 456 519 610 422 355 287 288 273 297 290 200 169 185 196 193 226 158 103 117 183 195 183
97 101 114 135 155 155 165 189 190 156 142 139 88 72 91 137 203 249 320 363 380 439 374 267 312 281 236 222 252 272 229 211 200 184 220 236 141 73 81 98 144 175 192
107 82 80 118 132 132 145 148 132 107 86 76 59 84 127 168 192 234 280 300 298 319 315 303 246 211 228 207 178 204 199 186 192 240 234 143 54 35 57 111 113 130 137
102 92 88 103 74 89 108 112 70 56 36 41 76 118 155 175 203 245 277 294 316 285 252 263 253 222 216 156 122 149 160 145 163 215 130 23 22 40 64 95 105 98 96
98 81 84 80 74 71 57 53 38 39 37 53 82 131 167 184 204 256 277 264 267 263 244 240 246 209 138 100 105 118 125 147 234 218 101 75 40 49 65 96 100 114 127
77 72 85 104 103 74 59 48 41 53 61 84 85 99 141 169 188 238 244 261 237 224 219 199 203 178 140 96 82 91 95 86 144 116 85 46 48 68 77 72 86 98 102
86 114 155 143 129 107 75 56 58 76 85 93 96 105 150 188 191 215 225 244 215 193 184 155 148 136 130 110 81 63 62 52 46 52 91 123 155 125 110 111 98 85 82
74 118 147 141 126 117 84 74 71 86 103 116 152 165 174 183 195 189 183 182 149 143 149 127 97 97 75 63 104 89 54 39 58 108 128 145 147 137 143 133 108 102 93
109 152 168 151 134 87 71 92 90 90 122 149 170 158 169 172 170 172 162 106 108 90 90 100 69 60 59 83 97 75 71 84 102 111 110 113 122 122 118 126 120 101 103

GFSMW_con_3kmhel_168.txt.gz
Helicity
111 77 55 127 256 333 409 386 410 334 305 269 172 150 161 130 90 89 100 95 90 97 110 113 118 123 106 99 106 133 164 211 235 329 368 374 386 403 375 318 276 246 211
129 132 92 109 232 339 391 392 391 373 317 264 186 69 79 74 62 64 66 62 62 57 66 81 93 109 113 112 106 123 161 191 167 236 293 276 269 330 332 304 271 273 229
37 45 100 216 317 366 333 346 384 380 336 305 330 268 117 56 51 53 51 44 43 54 71 83 85 89 99 98 107 114 132 158 156 170 218 243 223 331 278 289 281 282 260
36 36 30 112 227 243 281 306 328 345 236 167 179 121 92 127 63 37 37 32 70 82 95 109 119 119 118 100 102 111 126 155 167 181 206 217 200 251 263 312 312 291 261
39 35 23 48 86 164 196 153 165 142 101 74 98 62 81 105 102 91 71 64 59 66 82 91 111 132 148 135 92 91 97 139 165 202 218 238 243 242 239 269 298 340 305
58 42 12 5 27 38 90 96 96 73 103 119 69 82 78 64 72 84 81 76 92 93 95 90 92 109 134 154 147 120 107 122 163 187 202 236 255 232 235 241 272 295 279
47 37 27 8 -32 -27 21 37 62 74 31 -7 34 58 42 67 69 90 120 127 133 105 83 99 92 106 112 139 151 148 136 119 140 177 201 212 245 237 274 272 317 322 292
58 47 6 -45 -91 -103 -76 -28 -14 -29 -39 -3 3 88 111 136 143 137 135 121 126 147 138 119 98 106 126 132 137 167 156 144 158 168 189 215 223 243 267 300 343 313 290
67 43 7 -22 -44 -50 -40 -29 -43 -37 -4 13 35 56 98 108 103 104 115 120 127 135 121 123 126 115 136 142 147 145 141 145 151 163 178 207 220 226 240 271 312 319 303
115 124 74 38 22 6 -31 -41 -27 -45 -44 -2 45 70 82 96 120 146 124 123 118 119 143 147 159 165 147 139 148 155 156 164 160 153 165 196 213 233 242 265 313 301 280
237 137 99 80 44 22 -8 7 -5 -8 8 44 51 60 66 82 100 97 96 109 146 152 166 197 196 194 182 171 164 147 141 141 161 174 183 182 186 202 222 233 258 270 270
378 202 140 133 91 54 81 92 103 69 79 80 73 74 85 89 92 77 76 91 103 134 175 223 258 266 243 218 188 169 158 157 156 178 182 199 210 238 245 236 247 231 216
224 205 117 91 105 147 185 182 175 145 134 120 114 113 114 112 94 74 83 86 105 127 172 240 284 311 279 269 226 222 220 198 205 227 200 191 215 248 224 188 164 136 242
206 114 89 113 141 170 206 225 231 206 156 130 118 113 115 112 106 87 89 89 103 133 182 224 274 330 358 368 305 301 302 256 221 236 272 189 205 241 238 164 135 181 232
108 85 118 141 147 205 224 250 226 170 153 145 118 105 105 120 119 102 89 92 104 140 212 276 320 351 387 389 399 372 325 230 223 234 249 261 194 114 129 141 165 160 200
139 137 118 149 155 206 244 239 172 150 159 153 133 125 138 135 121 82 75 95 123 197 257 298 341 359 379 406 447 282 266 241 236 243 257 286 283 184 176 227 240 233 203
125 121 146 146 203 254 244 218 190 167 178 170 142 124 123 118 96 43 58 105 163 220 274 318 339 361 432 301 227 268 253 268 245 212 193 201 166 116 215 296 311 266 209
113 126 145 152 158 148 155 155 163 151 151 140 129 142 151 159 99 66 77 133 175 218 261 311 334 371 293 216 199 249 240 249 219 180 173 149 145 140 184 262 248 145 155
130 122 118 111 107 135 125 113 119 122 130 140 144 130 117 101 68 63 84 132 185 214 229 255 295 322 269 182 190 213 212 229 208 175 149 122 121 147 190 243 187 156 165
114 98 83 84 77 61 71 73 79 103 111 104 109 86 69 61 55 70 90 148 192 211 219 259 250 228 224 163 166 244 248 223 159 130 125 148 153 170 176 150 134 130 121
92 96 98 97 85 91 107 112 96 89 78 84 59 40 44 61 76 94 115 156 191 215 237 260 255 234 192 181 158 176 167 140 120 108 118 137 139 115 102 96 86 83 87
99 87 99 88 83 92 93 78 77 63 59 54 23 13 34 58 98 129 141 161 180 201 235 262 269 240 190 155 108 108 137 112 102 112 127 141 103 52 46 62 68 79 97
52 78 75 70 75 115 122 99 78 60 53 51 50 47 71 73 109 130 147 155 168 204 224 237 248 216 158 137 113 101 116 111 111 102 105 150 68 55 51 59 70 86 87
81 80 96 99 102 126 125 100 73 63 68 63 85 108 107 109 126 116 123 148 176 180 203 231 226 191 168 145 124 121 85 74 72 71 131 116 103 78 79 74 76 78 83
112 95 88 94 94 129 104 94 56 48 60 84 112 120 105 124 137 128 115 129 126 158 189 182 173 162 147 127 96 79 58 52 63 116 132 123 88 75 110 108 91 80 82
123 89 85 97 124 150 147 90 71 61 74 70 107 119 154 156 161 145 141 112 129 130 127 137 137 122 114 81 85 84 49 48 40 43 62 76 87 94 100 97 93 84 78